Versailles, OH

1:03 PM EDT on April 28, 2017 (GMT -0400)
Darke County

Weather History for KVES - March, 2013

Change the Weather History Date:

Monday, March 11, 2013

  Actual Average (KDAY) Record (KDAY)
Temperature  
Mean Temperature 43 °F -  
Max Temperature 53 °F 48 °F 76 °F (1990)
Min Temperature 33 °F 30 °F 5 °F (1948)
Degree Days  
Heating Degree Days 22    
Moisture  
Dew Point 42 °F    
Average Humidity 87    
Maximum Humidity 100    
Minimum Humidity 62    
Precipitation  
Precipitation 0.50 in - - ()
Sea Level Pressure  
Sea Level Pressure 29.71 in    
Wind  
Wind Speed 18 mph (SSW)    
Max Wind Speed 24 mph    
Max Gust Speed 37 mph    
Visibility 9 miles    
Events Rain    
Averages and records for this station are not official NWS values.
T = Trace of Precipitation, MM = Missing Value Source: NWS Daily Summary

Daily Weather History Graph

Daily Weather History Graph

Search for Another Location

Airport or City:

Trip Planner

Search our weather history database for the weather conditions in past years. The results will help you decide how hot, cold, wet, or windy it might be!

Date:

Astronomy

Mar. 11, 2013 Rise Set
Actual Time 7:55 AM EDT 7:40 PM EDT
Civil Twilight 7:28 AM EDT 8:08 PM EDT
Nautical Twilight 6:57 AM EDT 8:39 PM EDT
Astronomical Twilight 6:25 AM EDT 9:11 PM EDT
Moon 7:28 AM EDT (3/11) 7:52 PM EDT (3/11)
Length of Visible Light 12h 39m
Length of Day
11h 45m
Waning Crescent, 0% of the Moon is Illuminated
Mar 11
Waning Crescent
Mar 11
New
Mar 19
First Quarter
Mar 27
Full
Apr 3
Last Quarter

Hourly Weather History & Observations

Time (EDT) Temp. Windchill Dew Point Humidity Pressure Visibility Wind Dir Wind Speed Gust Speed Precip Events Conditions
12:15 AM 53.6 °F - 41.0 °F 62% 29.81 in 10.0 mi South 16.1 mph 23.0 mph N/A   Overcast
12:35 AM 53.6 °F - 41.0 °F 62% 29.81 in 10.0 mi South 21.9 mph 27.6 mph N/A   Overcast
12:55 AM 53.6 °F - 42.8 °F 67% 29.81 in 10.0 mi South 18.4 mph 28.8 mph N/A   Overcast
1:15 AM 53.6 °F - 42.8 °F 67% 29.81 in 10.0 mi South 18.4 mph 24.2 mph N/A   Overcast
1:35 AM 51.8 °F - 42.8 °F 71% 29.80 in 10.0 mi South 19.6 mph 36.8 mph N/A Rain Light Rain
2:15 AM 50.0 °F - 46.4 °F 87% 29.79 in 10.0 mi South 17.3 mph 28.8 mph 0.02 in Rain Light Rain
2:55 AM 50.0 °F - 46.4 °F 87% 29.77 in 10.0 mi South 17.3 mph 25.3 mph 0.02 in   Mostly Cloudy
3:15 AM 50.0 °F - 46.4 °F 87% 29.77 in 10.0 mi South 13.8 mph 24.2 mph N/A   Mostly Cloudy
3:35 AM 50.0 °F - 46.4 °F 87% 29.77 in 10.0 mi South 18.4 mph 26.5 mph N/A Rain Light Rain
3:55 AM 50.0 °F - 46.4 °F 87% 29.76 in 10.0 mi South 21.9 mph 26.5 mph N/A Rain Light Rain
4:15 AM 50.0 °F - 46.4 °F 87% 29.76 in 10.0 mi South 18.4 mph 27.6 mph N/A   Light Drizzle
4:55 AM 50.0 °F - 46.4 °F 87% 29.74 in 10.0 mi South 13.8 mph 26.5 mph N/A   Overcast
5:15 AM 50.0 °F - 46.4 °F 87% 29.73 in 10.0 mi South 13.8 mph 20.7 mph N/A   Overcast
5:35 AM 50.0 °F - 46.4 °F 87% 29.73 in 10.0 mi South 17.3 mph 24.2 mph N/A   Overcast
5:55 AM 50.0 °F - 46.4 °F 87% 29.71 in 10.0 mi South 21.9 mph 32.2 mph N/A   Overcast
6:15 AM 50.0 °F - 46.4 °F 87% 29.73 in 10.0 mi South 21.9 mph 32.2 mph N/A   Overcast
6:35 AM 50.0 °F - 46.4 °F 87% 29.74 in 10.0 mi South 21.9 mph 35.7 mph N/A Rain Light Rain
6:55 AM 50.0 °F - 46.4 °F 87% 29.74 in 7.0 mi South 18.4 mph 32.2 mph 0.01 in Rain Light Rain
7:15 AM 48.2 °F - 46.4 °F 93% 29.74 in 10.0 mi South 24.2 mph 33.4 mph 0.01 in Rain Light Rain
7:35 AM 48.2 °F - 46.4 °F 93% 29.72 in 7.0 mi SSE 20.7 mph 31.1 mph 0.02 in Rain Rain
7:55 AM 48.2 °F - 46.4 °F 93% 29.71 in 10.0 mi SSE 19.6 mph 32.2 mph 0.02 in Rain Light Rain
8:15 AM 46.4 °F 39.0 °F 46.4 °F 100% 29.73 in 7.0 mi South 19.6 mph 28.8 mph 0.01 in Rain Light Rain
8:35 AM 46.4 °F 39.2 °F 46.4 °F 100% 29.74 in 7.0 mi SSE 18.4 mph 24.2 mph 0.03 in Rain Light Rain
8:55 AM 46.4 °F 38.5 °F 46.4 °F 100% 29.72 in 7.0 mi SSE 21.9 mph 28.8 mph 0.05 in Rain Light Rain
9:15 AM 48.2 °F - 48.2 °F 100% 29.72 in 10.0 mi SSE 18.4 mph 25.3 mph N/A   Overcast
9:35 AM 48.2 °F - 48.2 °F 100% 29.72 in 10.0 mi SSE 17.3 mph 23.0 mph N/A   Overcast
9:55 AM 50.0 °F - 50.0 °F 100% 29.72 in 10.0 mi South 15.0 mph 25.3 mph N/A   Overcast
10:15 AM 50.0 °F - 48.2 °F 94% 29.70 in 10.0 mi South 19.6 mph 27.6 mph N/A   Overcast
10:35 AM 50.0 °F - 46.4 °F 87% 29.69 in 10.0 mi South 15.0 mph 24.2 mph N/A Rain Light Rain
10:55 AM 50.0 °F - 46.4 °F 87% 29.68 in 10.0 mi South 15.0 mph 21.9 mph N/A   Overcast
11:15 AM 48.2 °F - 46.4 °F 93% 29.66 in 10.0 mi South 16.1 mph 21.9 mph N/A Rain Light Rain
11:35 AM 48.2 °F - 46.4 °F 93% 29.65 in 10.0 mi SSE 12.7 mph 18.4 mph N/A   Overcast
11:55 AM 50.0 °F - 46.4 °F 87% 29.64 in 10.0 mi SSE 16.1 mph 23.0 mph N/A   Overcast
12:15 PM 50.0 °F - 46.4 °F 87% 29.63 in 7.0 mi SSE 15.0 mph 23.0 mph N/A Rain Rain
12:35 PM 50.0 °F - 46.4 °F 87% 29.62 in 5.0 mi SSE 11.5 mph 20.7 mph 0.05 in Rain Rain
12:55 PM 50.0 °F - 48.2 °F 94% 29.59 in 10.0 mi SSE 17.3 mph 21.9 mph 0.07 in Rain Light Rain
1:15 PM 50.0 °F - 48.2 °F 94% 29.59 in 4.0 mi South 13.8 mph 19.6 mph 0.05 in Rain Rain
1:35 PM 50.0 °F - 48.2 °F 94% 29.57 in 5.0 mi South 11.5 mph 20.7 mph 0.10 in Rain Rain
1:55 PM 50.0 °F - 50.0 °F 100% 29.57 in 4.0 mi South 13.8 mph 20.7 mph 0.18 in Rain Rain
2:15 PM 50.0 °F - 50.0 °F 100% 29.58 in 2.5 mi SW 21.9 mph 33.4 mph 0.11 in Rain Rain
2:35 PM 46.4 °F 38.1 °F 44.6 °F 93% 29.60 in 5.0 mi WSW 24.2 mph 33.4 mph 0.12 in Rain Rain
2:55 PM 46.4 °F 39.5 °F 44.6 °F 93% 29.59 in 10.0 mi WSW 17.3 mph 23.0 mph 0.13 in Rain Light Rain
3:15 PM 46.4 °F 40.4 °F 44.6 °F 93% 29.60 in 7.0 mi WSW 13.8 mph 20.7 mph 0.02 in Rain Light Rain
3:35 PM 46.4 °F 40.4 °F 44.6 °F 93% 29.60 in 5.0 mi West 13.8 mph - 0.02 in Rain Light Rain
3:55 PM 46.4 °F 39.5 °F 44.6 °F 93% 29.60 in 10.0 mi WSW 17.3 mph 26.5 mph 0.02 in   Overcast
4:15 PM 46.4 °F 38.7 °F 41.0 °F 81% 29.60 in 10.0 mi WSW 20.7 mph 28.8 mph N/A   Overcast
4:35 PM 46.4 °F 38.3 °F 41.0 °F 81% 29.60 in 10.0 mi West 23.0 mph 29.9 mph N/A   Overcast
4:55 PM 44.6 °F 37.2 °F 41.0 °F 87% 29.62 in 10.0 mi West 17.3 mph 29.9 mph N/A   Overcast
5:15 PM 44.6 °F 36.6 °F 39.2 °F 81% 29.63 in 10.0 mi West 19.6 mph 25.3 mph N/A   Overcast
5:35 PM 44.6 °F 35.9 °F 37.4 °F 76% 29.64 in 10.0 mi West 23.0 mph 31.1 mph N/A   Overcast
5:55 PM 42.8 °F 34.3 °F 37.4 °F 81% 29.66 in 10.0 mi West 19.6 mph 26.5 mph N/A   Overcast
6:15 PM 42.8 °F 35.4 °F 35.6 °F 76% 29.68 in 10.0 mi WSW 15.0 mph 25.3 mph N/A   Overcast
6:35 PM 42.8 °F 34.8 °F 37.4 °F 81% 29.69 in 10.0 mi WSW 17.3 mph 21.9 mph N/A   Overcast
7:15 PM 41.0 °F 32.2 °F 33.8 °F 76% 29.71 in 10.0 mi West 18.4 mph 26.5 mph N/A   Overcast
7:35 PM 39.2 °F 29.6 °F 33.8 °F 81% 29.71 in 10.0 mi West 19.6 mph 25.3 mph N/A   Overcast
7:55 PM 39.2 °F 30.5 °F 33.8 °F 81% 29.72 in 10.0 mi West 16.1 mph 23.0 mph N/A   Overcast
8:15 PM 37.4 °F 27.5 °F 33.8 °F 87% 29.73 in 10.0 mi West 18.4 mph 25.3 mph N/A   Overcast
8:35 PM 37.4 °F 27.8 °F 33.8 °F 87% 29.74 in 10.0 mi WSW 17.3 mph 23.0 mph N/A   Overcast
8:55 PM 37.4 °F 29.8 °F 32.0 °F 81% 29.76 in 10.0 mi West 11.5 mph 24.2 mph N/A   Overcast
9:15 PM 37.4 °F 27.5 °F 32.0 °F 81% 29.77 in 10.0 mi West 18.4 mph 28.8 mph N/A   Overcast
9:35 PM 35.6 °F 26.2 °F 32.0 °F 87% 29.78 in 10.0 mi WSW 15.0 mph 23.0 mph N/A   Overcast
9:55 PM 35.6 °F 26.2 °F 32.0 °F 87% 29.78 in 10.0 mi WSW 15.0 mph 19.6 mph N/A   Overcast
10:15 PM 35.6 °F 25.9 °F 32.0 °F 87% 29.79 in 10.0 mi West 16.1 mph 21.9 mph N/A   Overcast
10:35 PM 35.6 °F 26.6 °F 33.8 °F 93% 29.81 in 10.0 mi West 13.8 mph - N/A   Overcast
10:55 PM 35.6 °F 26.2 °F 32.0 °F 87% 29.81 in 10.0 mi West 15.0 mph 18.4 mph N/A   Overcast
11:15 PM 35.6 °F 25.9 °F 32.0 °F 87% 29.81 in 10.0 mi West 16.1 mph - N/A   Overcast
11:35 PM 33.8 °F 23.5 °F 32.0 °F 93% 29.81 in 10.0 mi West 16.1 mph - N/A   Overcast
11:55 PM 33.8 °F 23.2 °F 32.0 °F 93% 29.81 in 10.0 mi West 17.3 mph 20.7 mph N/A   Overcast